Cloud_Cover
0 0 0 0 4 5 5 5 7 5 1 0 0 0 0 0 0 0 0 0 0 0 0 0 0 0 0 0 0 0 0 0 0 0 0 0 6 98 100 100 100 100 86 98 100 100 98
3 0 0 0 5 7 5 5 5 0 0 0 0 0 0 0 0 0 0 0 0 0 0 0 0 0 0 0 0 0 0 0 0 0 0 0 0 25 95 100 100 97 68 93 100 100 100
4 0 0 0 1 1 2 0 0 0 0 0 0 0 0 0 0 0 0 0 0 0 0 0 0 0 0 0 3 0 0 0 0 0 0 0 0 2 100 98 100 100 100 100 100 100 100
5 0 0 0 0 0 0 0 0 0 0 0 0 0 0 0 1 0 0 0 0 0 0 0 0 0 0 0 0 0 0 0 0 0 0 0 0 0 59 100 100 74 100 100 80 58 100
4 0 0 0 0 0 0 0 0 0 0 0 0 0 0 4 5 3 3 0 0 0 0 0 0 0 0 0 0 0 0 0 0 0 0 0 0 1 10 97 100 100 100 96 40 34 51
5 0 0 0 0 0 0 0 0 0 0 0 5 0 5 5 5 49 1 0 0 0 3 0 0 0 0 0 0 0 0 4 1 3 3 4 4 1 16 98 100 100 100 100 54 43 22
5 3 0 5 0 0 4 5 5 0 0 5 5 5 5 5 5 5 5 5 0 0 0 0 0 0 0 0 0 0 14 23 6 99 79 75 14 67 63 53 88 100 100 100 100 100 68
5 4 0 5 0 3 5 5 5 0 4 5 5 5 61 14 65 5 5 5 0 3 0 0 0 0 0 0 0 0 4 1 80 100 92 56 87 99 95 97 94 83 100 94 95 100 100
5 11 5 5 4 3 5 5 3 1 4 5 59 5 89 53 40 5 40 5 0 34 0 0 0 2 0 0 0 0 0 3 15 95 99 100 100 87 98 92 72 62 99 88 90 100 100
8 10 5 5 5 4 5 5 5 4 5 5 97 24 96 97 80 5 99 5 2 61 0 0 0 2 0 0 0 0 1 4 5 75 81 88 100 98 100 93 99 57 81 99 100 100 100
6 7 47 48 5 5 30 39 62 29 9 10 25 30 66 74 13 32 98 5 29 21 0 0 0 4 2 0 0 0 0 4 5 8 97 98 83 100 100 100 100 60 92 93 100 100 100
59 69 39 52 6 5 5 5 14 5 28 98 68 98 48 75 40 91 66 5 92 5 0 0 0 0 5 0 0 0 0 75 24 34 22 100 100 100 100 99 100 98 77 100 100 100 100
34 6 59 7 100 5 5 5 5 5 5 49 61 100 55 42 94 100 7 5 97 1 0 0 0 0 0 3 3 0 0 0 96 68 41 100 82 100 100 100 100 100 99 100 100 100 100
5 5 9 84 36 32 5 21 29 5 5 5 5 9 38 8 89 23 5 94 62 5 5 2 0 0 0 0 2 4 0 1 36 96 100 99 94 94 100 100 100 100 100 100 100 37 100
52 100 37 82 44 12 52 5 5 5 5 5 6 21 70 100 88 96 47 100 5 5 5 5 1 0 3 0 3 3 4 0 27 100 100 100 78 100 88 96 67 97 100 100 100 90 74
100 100 100 100 54 84 22 5 5 5 5 5 5 11 97 100 69 99 95 100 28 5 5 5 3 3 3 5 0 0 0 2 0 37 100 100 100 100 100 93 88 100 100 100 100 100 100
100 100 100 73 65 100 8 5 5 5 6 9 5 44 94 100 100 98 83 76 90 5 5 5 5 5 1 5 5 5 2 3 3 5 88 100 91 100 92 99 100 100 100 96 100 100 100
100 100 100 83 81 70 5 5 5 5 31 34 5 99 90 100 100 98 37 18 24 44 5 5 5 52 52 58 34 5 5 0 4 16 88 64 59 62 100 75 99 100 100 100 100 100 100
100 100 81 66 90 6 19 10 11 11 60 54 46 100 97 100 98 100 17 10 34 72 26 5 5 5 5 75 34 5 5 5 1 5 87 7 7 55 96 88 100 100 100 100 99 92 100
52 31 39 5 81 66 72 6 16 17 6 90 61 97 92 76 67 89 30 5 5 65 77 15 5 5 6 9 8 34 5 5 38 5 5 9 5 52 88 100 100 100 94 28 38 95 100
98 5 10 5 97 17 88 5 5 7 97 67 42 42 98 68 83 69 42 5 5 69 93 36 5 5 26 42 28 5 5 5 41 14 5 5 5 5 2 59 67 98 99 54 90 97 76
100 9 5 6 69 70 5 5 5 5 95 27 16 71 99 74 89 43 50 29 5 21 82 96 11 5 42 14 50 53 5 27 44 35 32 23 6 18 4 0 5 24 5 40 77 79 75
72 100 14 5 5 80 6 5 5 5 58 55 52 29 84 16 46 60 61 52 14 5 36 68 100 37 20 5 32 100 85 55 92 100 100 97 8 7 19 10 0 2 5 48 100 100 100
65 98 100 80 13 92 25 5 5 5 5 10 80 78 36 20 65 58 15 30 78 5 8 37 100 100 10 52 74 87 100 100 99 86 95 100 10 5 38 10 9 0 0 8 81 100 100
100 74 62 97 100 88 72 16 77 39 6 5 6 27 52 85 32 40 8 14 63 32 45 63 94 100 100 62 100 100 76 60 19 5 16 24 62 5 5 12 5 5 0 5 5 49 97
100 89 100 28 100 88 83 6 98 93 100 54 5 5 5 5 18 14 9 57 41 23 19 5 62 100 100 95 10 96 100 64 28 9 5 5 94 16 5 5 22 5 5 5 97 65 74
100 100 86 100 89 100 92 95 100 94 88 88 5 5 5 5 45 34 73 65 90 55 16 5 11 91 96 43 5 5 91 100 57 94 15 6 72 100 7 20 5 26 5 12 11 15 5
100 100 100 75 96 100 84 100 100 74 33 42 51 60 83 86 90 100 100 90 94 83 41 20 5 8 23 68 5 5 14 100 52 87 41 5 5 95 96 100 97 10 62 5 3 4 5
100 100 100 100 100 100 100 100 100 100 99 32 100 100 100 99 100 100 100 74 76 88 100 100 100 62 90 98 63 6 16 97 18 61 83 6 25 34 100 100 100 100 50 39 5 4 4